Temperature
11 11 11 11 10 10 10 10 10 10 10 10 10 10 10 10 10 10 10 10 10 11 11 11 11 11 11 11 11 11 11 11 11 11 11 10 10 10 10 10 10 10 10
10 11 10 11 10 10 10 10 10 10 10 10 10 10 10 10 10 10 10 10 10 10 10 10 10 10 10 10 10 10 10 10 10 10 10 10 10 10 10 10 10 9 9
10 11 11 11 10 10 10 10 10 10 10 10 10 9 9 9 9 9 9 10 10 10 10 10 10 10 10 10 10 10 10 10 10 9 9 9 9 9 9 9 9 9 9
10 10 10 10 10 10 10 10 10 10 9 9 9 9 9 9 9 9 9 9 9 9 9 9 9 9 9 9 9 9 9 9 9 9 9 9 8 8 8 8 8 8 8
10 10 10 10 10 10 10 10 10 9 9 9 9 9 9 9 9 9 9 9 9 9 9 9 9 9 9 9 9 9 9 9 8 8 8 8 8 8 7 7 8 8 8
10 10 10 10 10 10 10 9 9 9 9 9 9 9 9 9 9 9 9 9 9 8 8 8 8 8 8 8 8 8 8 8 8 8 8 8 7 7 7 7 7 7 7
10 10 10 10 10 10 9 9 9 9 9 9 9 8 8 8 8 8 8 8 8 8 8 8 8 8 8 8 8 8 8 7 7 7 7 7 7 7 6 6 6 6 6
9 10 10 9 9 9 9 9 9 9 9 8 8 8 8 8 8 8 8 8 8 8 8 8 7 7 7 7 7 7 7 7 7 7 7 6 6 6 6 6 5 5 5
9 9 9 9 9 9 9 9 9 8 8 8 8 8 8 8 7 7 7 7 7 7 7 7 7 7 7 7 7 7 7 6 6 6 6 6 6 6 6 5 5 4 4
9 9 9 9 9 9 9 9 8 8 8 8 7 7 7 7 7 7 7 7 7 6 6 7 6 6 6 6 6 6 6 6 6 6 6 6 5 5 5 5 4 4 4
9 9 8 8 8 8 8 8 8 8 8 7 7 7 7 7 6 6 6 6 6 6 6 6 6 6 6 6 6 6 6 5 5 5 5 5 5 5 5 4 4 4 3
8 8 8 8 8 8 8 8 7 7 7 7 7 7 7 6 6 6 6 6 6 6 6 5 5 5 5 5 5 5 5 5 5 5 4 4 4 4 4 4 4 3 3
8 8 8 7 7 7 7 7 7 7 7 6 6 6 6 6 6 6 6 5 5 5 5 5 5 5 5 5 5 5 5 4 4 4 4 4 4 4 3 3 3 3 3
7 7 7 7 7 7 7 7 7 6 6 6 6 6 6 6 6 5 5 5 5 5 5 5 5 5 4 4 4 4 4 4 4 4 3 3 3 3 3 3 2 2 2
6 6 6 6 6 6 6 6 6 6 6 6 6 6 5 5 5 5 5 5 4 4 4 4 4 4 4 4 3 3 3 3 3 3 3 3 3 2 2 2 2 2 2
6 6 6 6 6 6 6 6 6 6 5 5 5 5 5 5 4 4 4 4 4 4 4 4 4 3 3 3 3 2 2 2 2 2 2 2 2 2 2 1 1 1 1
6 6 6 5 6 6 6 5 5 5 5 5 5 4 4 4 4 4 4 4 3 3 3 3 3 3 3 2 2 2 2 2 2 2 2 2 2 1 1 1 1 1 1
5 5 5 5 5 5 5 5 5 4 4 4 4 4 4 4 3 3 3 3 3 3 3 3 2 2 2 2 2 1 1 1 1 1 1 1 1 1 1 1 1 0 0
5 5 5 5 5 5 4 4 4 4 4 4 3 3 3 3 3 3 3 2 2 2 2 2 2 2 1 1 1 1 1 1 1 1 1 1 1 1 0 0 0 0 0
4 4 4 4 4 4 4 4 3 3 3 3 3 3 3 2 2 2 2 2 2 2 2 1 1 1 1 1 1 0 0 0 0 0 0 0 -0 -0 -0 -0 -0 -0 -0
3 3 3 3 3 3 3 3 3 3 3 3 2 2 2 2 2 2 2 1 1 1 1 1 1 0 0 0 0 -0 -0 -0 -0 -1 -0 -0 -0 -1 -1 -1 -1 -1 -1
2 2 3 3 3 2 2 2 3 2 2 2 2 2 2 1 1 1 1 1 1 0 0 0 -0 -0 -0 -0 -0 -1 -1 -1 -1 -1 -1 -1 -1 -1 -1 -1 -1 -1 -1
2 2 2 2 2 2 2 2 2 2 1 1 1 1 1 1 1 0 0 0 -0 -0 -0 -1 -1 -1 -1 -1 -1 -1 -1 -1 -1 -1 -2 -2 -2 -2 -2 -2 -2 -2 -2
1 1 1 1 1 1 1 1 1 1 1 1 1 1 0 0 0 -0 -0 -0 -0 -1 -1 -1 -1 -1 -1 -1 -1 -1 -1 -2 -2 -2 -2 -2 -2 -2 -2 -2 -2 -2 -2
1 1 1 1 1 1 1 0 0 0 0 0 0 -0 -0 -0 -0 -0 -1 -1 -1 -1 -1 -1 -1 -1 -1 -1 -2 -2 -2 -2 -2 -2 -2 -2 -2 -2 -2 -3 -3 -3 -3
0 0 0 0 0 0 0 0 -0 -0 -1 -1 -1 -1 -1 -1 -1 -1 -1 -1 -1 -1 -2 -2 -2 -2 -2 -2 -2 -2 -3 -3 -3 -3 -3 -3 -3 -3 -3 -3 -3 -3 -3
Wind_Speed
4 2 3 4 4 4 4 5 6 6 6 4 4 3 2 2 2 2 4 4 5 5 5 3 3 3 2 2 2 2 3 2 2 2 2 3 3 3 3 4 4 5 6
3 3 3 4 5 5 5 5 5 6 6 4 4 3 3 2 2 2 3 4 4 5 4 3 2 2 2 2 2 2 2 2 2 2 2 1 3 3 3 3 3 3 5
5 4 4 4 5 5 6 6 5 6 5 6 5 4 4 3 2 1 1 2 3 4 4 3 3 3 2 2 2 2 3 1 2 2 2 2 1 1 2 3 3 3 3
5 5 5 5 5 5 5 5 5 5 5 6 6 6 4 3 2 2 1 1 2 3 4 4 3 3 2 2 2 2 2 2 1 1 2 1 2 2 1 2 2 2 3
6 6 6 6 5 5 5 5 5 5 5 6 6 6 4 3 2 2 2 2 1 2 3 3 3 3 2 2 2 2 2 2 2 1 1 1 2 1 2 2 3 2 2
5 4 4 4 3 4 4 4 5 5 5 6 5 6 6 4 4 3 2 1 1 1 2 2 2 2 2 2 2 2 2 2 2 1 1 1 1 1 1 2 2 3 2
5 5 5 5 5 5 5 5 5 5 5 6 5 6 6 6 5 4 3 3 1 1 1 1 1 1 2 2 3 2 2 2 2 2 1 1 1 2 2 2 2 2 2
5 5 6 6 6 6 5 5 5 5 6 6 5 4 5 4 3 3 3 4 3 3 2 2 2 2 2 2 3 2 1 2 2 2 1 1 1 1 2 2 2 2 2
4 5 5 5 6 6 6 6 6 5 5 5 5 4 4 4 4 3 3 2 2 2 3 3 2 2 2 2 3 2 2 2 2 2 2 1 2 1 1 2 2 2 3
3 3 3 3 4 4 4 4 5 5 5 5 5 4 4 4 4 3 4 3 3 3 3 3 3 3 2 2 2 2 2 2 1 2 2 2 2 2 2 2 2 3 4
3 3 3 3 3 3 3 3 4 4 4 5 4 4 4 4 3 3 4 4 3 3 4 4 3 3 3 3 3 3 2 2 2 2 3 3 3 2 2 2 2 3 3
2 2 2 3 3 3 3 4 3 3 4 4 4 3 3 3 3 3 3 3 4 4 4 4 4 4 3 3 4 4 3 4 4 4 4 4 3 3 3 3 4 4 4
1 1 2 2 2 3 3 3 3 3 3 3 4 3 3 4 4 4 4 4 4 4 3 4 4 4 4 4 4 4 4 4 5 5 5 5 4 5 4 4 4 4 4
1 1 2 2 2 2 3 3 2 3 3 3 3 3 4 4 4 4 4 4 4 4 4 4 4 4 4 4 4 4 4 5 5 5 6 6 6 6 6 5 5 4 4
1 1 1 2 2 2 2 2 2 2 3 3 3 3 3 3 3 3 3 3 4 4 4 4 4 4 4 4 5 5 5 5 5 5 6 6 7 9 7 6 5 5 4
2 2 1 2 2 3 3 2 2 2 3 3 3 3 2 2 3 3 3 3 3 3 3 4 4 4 4 6 7 6 5 5 5 6 6 6 7 9 11 11 10 8 6
3 3 3 3 3 4 3 3 3 2 2 3 3 3 3 3 3 3 3 3 4 3 3 4 4 5 6 8 8 8 5 5 6 6 6 6 6 7 6 8 10 10 12
3 3 3 3 2 2 2 2 2 2 2 3 3 3 3 3 3 3 3 4 3 3 4 4 4 5 6 8 8 8 5 6 6 6 7 7 7 6 6 6 6 6 7
3 3 3 2 2 2 2 2 2 2 3 3 4 4 4 4 4 4 4 4 3 4 4 4 5 6 7 9 9 8 4 5 6 6 6 7 7 10 10 7 7 7 6
1 1 1 1 1 2 2 2 3 3 5 5 5 4 4 5 5 6 5 4 4 5 5 5 5 6 7 9 10 9 4 5 5 5 6 9 9 11 10 7 6 8 7
1 0 0 0 2 2 2 3 4 5 5 4 3 3 4 4 5 5 4 4 4 4 4 5 5 6 7 9 10 9 5 5 5 5 5 5 10 11 11 10 7 9 7
1 0 0 1 2 1 2 3 5 5 3 3 3 4 4 4 3 4 4 4 4 4 5 5 5 5 6 7 9 11 10 8 6 6 5 6 10 11 11 9 9 11 8
1 1 0 2 2 1 2 3 5 3 2 3 4 4 4 3 4 4 4 4 4 4 5 5 5 5 4 6 10 11 11 10 7 6 8 9 11 10 8 9 10 8 4
1 1 1 2 4 3 3 4 4 2 2 3 4 4 3 4 4 4 4 5 5 5 5 6 6 5 5 4 4 5 6 7 7 6 7 9 9 7 7 7 6 4 4
2 1 2 3 5 4 4 4 4 2 3 4 4 4 4 4 4 4 5 6 6 7 7 6 6 6 6 8 9 7 5 5 5 4 3 3 3 3 3 4 4 4 4
3 3 3 4 5 5 5 5 4 3 3 4 4 4 4 4 4 4 4 7 9 11 12 12 10 8 10 11 12 12 11 10 9 6 4 5 5 5 5 4 4 4 4
Wind_Direction
239 204 184 164 158 159 161 165 147 144 139 132 129 121 119 102 80 72 78 84 89 92 92 89 80 77 90 95 102 93 81 62 58 69 44 26 35 47 45 40 48 46 42
226 195 174 165 173 171 169 162 158 153 151 147 139 127 123 111 107 80 73 77 83 88 97 99 100 92 92 82 82 93 93 50 43 86 90 24 2 16 21 22 35 31 30
214 205 187 190 183 182 178 173 166 157 151 138 120 108 94 86 88 92 86 64 92 93 94 95 109 102 102 109 95 106 109 109 29 56 119 136 215 314 348 9 20 18 17
212 203 192 194 196 197 178 166 162 156 152 146 145 146 147 157 174 162 147 101 97 98 100 94 104 105 99 104 96 92 119 131 139 41 42 100 150 158 314 330 347 359 1
210 204 196 197 197 183 171 166 157 154 153 154 156 149 148 156 145 134 130 120 96 104 109 104 100 109 111 113 103 95 105 127 147 137 100 75 56 107 178 269 309 329 325
206 203 193 177 169 153 151 149 152 157 154 151 152 155 159 160 154 156 154 144 113 95 107 120 114 120 122 126 127 121 120 119 119 127 143 154 157 177 180 225 271 288 292
191 191 184 175 171 162 157 156 154 161 159 156 162 168 169 168 175 179 176 168 163 190 193 157 150 138 143 141 130 122 122 131 134 150 168 185 215 187 191 213 252 275 287
195 195 190 180 179 175 168 166 164 166 164 165 171 168 166 169 178 181 179 185 191 199 186 174 180 179 157 143 130 133 148 143 147 163 174 198 234 200 195 200 212 283 293
199 197 189 181 178 181 183 177 171 169 171 172 168 166 169 172 177 177 177 186 191 192 179 182 198 184 165 160 148 157 173 163 175 194 201 220 244 222 213 210 204 210 261
192 190 190 189 186 185 180 169 171 173 171 169 172 172 173 176 173 170 185 192 195 191 185 192 201 188 179 174 168 177 187 177 210 210 210 232 243 233 219 217 220 218 231
195 187 185 178 171 159 159 163 165 161 167 172 170 164 172 170 169 181 195 196 197 195 193 202 199 195 195 187 184 195 191 201 227 229 224 241 237 234 230 218 221 227 226
190 175 170 153 152 161 164 169 169 166 178 175 169 174 178 168 177 198 205 198 200 203 199 198 195 199 201 198 198 208 210 214 228 235 232 245 242 239 234 224 227 232 226
158 138 141 154 164 169 166 168 172 175 169 160 166 178 187 184 195 205 205 204 201 201 199 193 197 203 205 208 213 213 219 225 232 234 234 241 234 243 241 232 236 241 243
162 153 170 184 185 180 170 167 174 171 165 162 172 191 206 207 209 206 205 210 201 199 206 207 209 211 211 214 217 217 225 234 240 237 234 236 231 235 236 239 237 237 243
198 201 201 205 204 198 186 175 176 169 165 165 185 212 215 205 203 208 212 208 204 210 207 208 216 216 216 219 217 220 227 235 245 247 242 239 241 241 241 241 232 227 237
231 227 222 213 214 213 207 193 193 186 166 175 201 210 200 198 204 209 206 203 211 214 207 212 217 224 234 238 239 236 228 233 237 247 251 249 250 252 255 254 249 240 235
227 224 222 224 229 225 209 204 205 184 171 191 206 203 198 206 214 210 202 213 219 215 216 222 222 233 241 247 251 249 239 233 236 240 246 256 251 253 246 256 257 255 254
226 233 233 237 244 231 215 198 181 182 195 210 218 212 201 212 214 205 215 226 223 221 228 231 231 239 248 249 252 255 245 240 240 239 238 246 252 247 246 244 248 248 251
230 231 228 230 229 224 203 176 197 203 212 225 228 224 213 216 217 221 228 231 226 232 234 235 232 238 251 250 251 254 241 246 250 248 241 241 248 257 259 253 250 257 259
249 235 229 203 211 231 185 181 215 219 227 230 230 224 218 218 223 227 232 236 228 234 235 242 238 237 246 253 254 252 238 247 256 257 251 251 253 259 260 248 244 253 254
310 35 122 201 235 224 186 215 231 236 238 235 234 230 222 225 229 231 234 231 232 236 241 248 252 244 247 255 256 253 241 237 249 257 258 254 259 264 263 257 248 253 254
356 31 47 295 286 230 194 230 249 252 246 234 236 237 231 230 231 221 232 227 223 233 244 250 261 255 249 251 252 251 251 249 245 250 251 252 260 264 268 268 263 263 260
304 308 254 295 304 277 215 241 262 255 241 243 247 248 244 237 226 219 226 233 225 230 241 242 252 258 250 250 255 257 256 256 258 253 255 263 267 269 269 267 267 264 244
288 289 295 294 298 296 278 262 267 251 234 250 257 251 242 245 237 228 221 224 228 232 238 241 246 253 253 245 243 245 252 256 261 264 263 269 271 269 267 269 264 248 232
291 281 271 276 284 291 287 283 268 239 247 256 256 253 246 241 242 240 233 230 232 229 231 237 235 239 250 248 244 245 239 233 240 252 260 264 266 260 260 260 251 236 231
294 292 282 279 284 287 286 285 270 241 239 259 258 253 249 245 242 248 269 253 246 254 250 248 247 249 251 257 257 258 259 261 256 258 249 253 253 252 254 256 253 238 231
Height
1481 1483 1484 1486 1487 1489 1491 1493 1494 1496 1498 1500 1503 1505 1507 1509 1511 1513 1515 1516 1517 1518 1519 1520 1521 1522 1523 1523 1524 1525 1525 1525 1525 1527 1528 1529 1529 1530 1530 1530 1531 1531 1531
1478 1480 1481 1483 1485 1487 1489 1490 1493 1494 1496 1499 1501 1504 1506 1508 1510 1512 1513 1514 1515 1516 1518 1519 1519 1520 1521 1522 1522 1523 1523 1523 1524 1524 1525 1526 1528 1527 1528 1528 1528 1528 1528
1475 1477 1479 1481 1483 1484 1486 1488 1490 1492 1495 1497 1500 1502 1504 1506 1509 1510 1512 1513 1514 1515 1516 1517 1517 1518 1519 1520 1520 1521 1521 1522 1522 1523 1524 1524 1523 1524 1525 1525 1525 1526 1526
1472 1474 1476 1478 1480 1482 1484 1486 1489 1491 1494 1496 1498 1500 1502 1504 1507 1509 1510 1511 1512 1513 1514 1515 1515 1516 1517 1517 1518 1519 1519 1520 1520 1521 1521 1522 1521 1522 1521 1522 1523 1523 1523
1469 1471 1473 1476 1478 1480 1482 1485 1487 1489 1492 1494 1496 1498 1501 1503 1505 1506 1508 1509 1510 1511 1512 1513 1513 1514 1515 1515 1516 1516 1517 1518 1518 1518 1518 1518 1519 1519 1519 1518 1519 1519 1519
1467 1469 1471 1473 1476 1478 1480 1483 1485 1487 1490 1492 1494 1496 1498 1500 1502 1504 1505 1506 1508 1509 1510 1511 1511 1512 1513 1513 1513 1514 1514 1515 1515 1515 1516 1516 1516 1516 1516 1515 1514 1514 1515
1464 1466 1469 1471 1473 1475 1478 1480 1483 1485 1487 1490 1492 1494 1496 1498 1500 1502 1503 1504 1505 1507 1507 1508 1509 1510 1510 1511 1511 1511 1512 1512 1512 1513 1513 1513 1513 1513 1513 1512 1511 1511 1511
1462 1464 1466 1469 1471 1473 1476 1478 1480 1482 1485 1487 1489 1492 1494 1496 1498 1499 1501 1502 1503 1504 1505 1506 1506 1507 1508 1508 1508 1509 1509 1509 1509 1510 1510 1510 1510 1510 1510 1510 1509 1508 1507
1460 1462 1465 1467 1469 1472 1474 1476 1478 1480 1482 1485 1487 1489 1491 1493 1495 1496 1498 1499 1500 1501 1502 1502 1504 1504 1505 1505 1505 1506 1506 1506 1506 1507 1507 1507 1507 1507 1506 1506 1506 1506 1504
1459 1461 1463 1465 1468 1470 1472 1474 1476 1478 1480 1482 1484 1486 1489 1490 1492 1493 1495 1496 1497 1498 1499 1500 1501 1501 1502 1502 1502 1502 1503 1503 1503 1503 1503 1503 1503 1503 1503 1503 1502 1502 1501
1458 1460 1462 1464 1466 1468 1470 1472 1474 1476 1478 1480 1482 1484 1486 1487 1489 1490 1491 1493 1494 1494 1495 1496 1497 1497 1498 1498 1498 1499 1499 1499 1499 1499 1499 1499 1499 1499 1499 1498 1498 1498 1497
1457 1459 1461 1463 1464 1466 1468 1470 1472 1473 1475 1477 1479 1481 1483 1484 1485 1487 1488 1489 1490 1491 1491 1492 1493 1493 1494 1494 1494 1494 1495 1495 1495 1495 1495 1494 1494 1494 1494 1494 1493 1493 1492
1456 1458 1460 1461 1462 1464 1466 1468 1469 1471 1473 1475 1476 1478 1479 1480 1482 1483 1484 1485 1486 1487 1488 1488 1488 1489 1489 1490 1490 1490 1490 1490 1490 1490 1490 1490 1490 1489 1489 1488 1488 1487 1487
1455 1456 1458 1459 1461 1462 1463 1465 1467 1469 1470 1471 1473 1474 1475 1477 1478 1479 1480 1481 1482 1483 1483 1483 1484 1484 1485 1485 1485 1485 1485 1485 1485 1485 1485 1485 1484 1484 1483 1483 1482 1482 1481
1454 1455 1456 1458 1459 1460 1461 1463 1465 1466 1467 1468 1469 1470 1472 1473 1474 1475 1476 1477 1477 1478 1479 1479 1479 1480 1480 1480 1480 1480 1480 1480 1479 1479 1479 1479 1479 1478 1478 1477 1477 1476 1475
1452 1453 1454 1456 1457 1458 1459 1460 1461 1463 1464 1464 1465 1467 1468 1469 1470 1471 1471 1472 1473 1473 1474 1474 1475 1475 1475 1476 1476 1475 1475 1474 1474 1474 1474 1473 1473 1472 1472 1472 1471 1471 1470
1451 1451 1452 1453 1454 1455 1456 1457 1458 1459 1460 1461 1462 1463 1463 1464 1465 1466 1466 1467 1468 1468 1468 1469 1469 1469 1470 1470 1470 1470 1469 1469 1468 1468 1468 1467 1467 1466 1466 1465 1465 1464 1464
1448 1449 1449 1450 1451 1452 1453 1454 1455 1456 1456 1457 1458 1458 1459 1460 1460 1461 1462 1462 1463 1463 1463 1463 1464 1464 1464 1464 1464 1464 1463 1463 1462 1462 1461 1461 1460 1460 1459 1459 1458 1457 1457
1446 1446 1447 1448 1448 1449 1450 1450 1451 1452 1453 1453 1454 1454 1455 1455 1455 1456 1457 1457 1458 1458 1458 1458 1458 1458 1458 1459 1459 1458 1457 1457 1456 1456 1455 1455 1454 1454 1453 1453 1451 1451 1450
1443 1443 1444 1445 1445 1446 1447 1447 1447 1448 1449 1449 1450 1450 1450 1451 1451 1451 1452 1452 1452 1452 1452 1452 1453 1453 1452 1453 1453 1452 1451 1450 1450 1449 1449 1448 1448 1447 1447 1447 1445 1444 1443
1441 1441 1442 1442 1443 1443 1444 1444 1444 1444 1445 1445 1445 1445 1446 1446 1446 1446 1447 1447 1447 1447 1447 1447 1447 1447 1446 1446 1446 1446 1445 1444 1443 1443 1442 1442 1442 1441 1441 1440 1439 1438 1438
1439 1439 1439 1440 1440 1441 1441 1440 1440 1440 1440 1440 1440 1440 1441 1441 1441 1441 1442 1442 1442 1442 1441 1441 1440 1440 1440 1440 1440 1440 1439 1439 1438 1436 1436 1436 1435 1435 1434 1433 1433 1432 1432
1437 1438 1437 1437 1437 1437 1437 1436 1436 1436 1436 1436 1435 1436 1436 1436 1436 1436 1436 1436 1436 1436 1435 1435 1434 1434 1434 1434 1434 1434 1433 1433 1432 1431 1430 1430 1429 1428 1427 1427 1426 1426 1425
1435 1435 1435 1434 1434 1434 1434 1433 1432 1432 1431 1431 1430 1430 1430 1430 1431 1431 1431 1431 1430 1430 1429 1429 1428 1427 1427 1428 1428 1427 1427 1427 1426 1425 1424 1424 1423 1422 1421 1420 1420 1419 1419
1433 1433 1432 1431 1431 1430 1430 1429 1428 1427 1426 1426 1425 1425 1425 1425 1425 1425 1425 1424 1424 1424 1423 1423 1422 1422 1421 1421 1422 1421 1420 1420 1420 1419 1419 1418 1417 1416 1415 1414 1413 1413 1413
1431 1430 1429 1428 1427 1426 1425 1425 1424 1423 1422 1421 1420 1420 1420 1419 1419 1419 1418 1418 1418 1418 1417 1417 1417 1416 1416 1415 1415 1415 1415 1414 1414 1414 1412 1412 1411 1410 1409 1408 1408 1407 1407